STARLINK-34903, 65372

Orbit data source: Space-Track

STARLINK-34903, 65372 is a payload satellite owned by SpaceX/Seattle (US) in LEO that was launched on Thu, 28 Aug 2025 UTC via an FALCON 9 launch vehicle from the Air Force Eastern Test Range (AFETR). Payload-class satellites include a variety of spacecraft equipped with specific instruments for various scientific and technological missions. These include communications satellites like Starlink; space stations such as the ISS; scientific satellites like the Hubble; Earth observation satellites from companies like Planet Labs, Umbra, and HawkEye 360; GPS; miniature CubeSats for education and research; and military/defense satellites.

Loading next visibility...
Identifier
65372, 2025-190X
Orbit
LEO
Country
Flag of USUS
Related business
Manufacturer
SpaceX/Seattle
Mission
Operational Commercial Communications
Bus & Motor
STARLINK V2MO, Unknown motor
Mass
575 kg wet, ~530 kg dry
Launch date (UTC)
2025-08-28 (10 months ago)
Launch vehicle
FALCON 9
Launch site
Air Force Eastern Test Range (AFETR)
Object type
Payload
Rocket body
Debris
Shape & HBR
Box + 2 Pan, 17.7 m
Radar Cross Section
36.964 m², Large (>1 m²)

Expand to show TLE details & history
Last TLE update: 22 hours ago

TLE from 22 hours ago
0 STARLINK-34903
1 65372U 25190X   26170.94762138  .00007555  00000-0  26684-3 0  9997
2 65372  53.1594  53.0299 0001169  75.9513 284.1617 15.30213831 45417
Epoch: 2026-06-19T22:44Z
TLE epoch observation values (Epoch: 2026-06-19T22:44:34.487Z)
Latitude
-0.00006°
Longitude
163.71687°
Altitude
475.878 km
Speed
7.629 km/s
True Right ascension
03h 32m 07s
True Declination
0° 00' 00"
Sunlit
Object was in daylight at epoch
Visualization orbit readout
Latitude
Unknown
Longitude
Unknown
Altitude
Unknown
Speed
Unknown
Apparent Right ascension
Unknown
Apparent Declination
Unknown
Sunlit
N/A
Visualization observer readout
Local Sidereal Time
07:19:53
Azimuth
Unknown
Elevation
Unknown
Doppler factor
Unknown
Orbital elements
Apogee altitude
476.231 km
Perigee altitude
474.629 km
Semi-major axis
6,853.567 km
Eccentricity
0.00012
Inclination
53.1594°
RAAN
53.0299°
Arg. of periapsis
75.9513°
True anomaly
284.14871°
Mean anomaly
284.1617°
Eccentric anomaly
284.15521°
Mean motion
3.82532 °/min
Orbital period
94.11 mins
BSTAR
0.00026684
Loading maneuver chart data...
Computing Atmospheric mass density...
Loading historical data...
Loading historical data...
Loading historical data...
Loading historical data...
Loading historical data...
Loading historical data...
Loading historical data...

Documentation

Showing up to 5 results
|